| time (UTC) | temp F | wind direction | speed MPH | gust MPH | rain 1hr in | rain 24hr in | rain mn in | humidity % | barometer mb |
| 20260507004010 | 80 | 360 | 6.0 | 12.0 | 0.00 | 0.00 | 0.00 | 18 | 1013.4 |
| 20260507003508 | 80 | 360 | 3.0 | 10.0 | 0.00 | 0.00 | 0.00 | 19 | 1013.4 |
| 20260507003010 | 80 | 360 | 3.0 | 10.0 | 0.00 | 0.00 | 0.00 | 19 | 1013.4 |
| 20260507002507 | 81 | 275 | 4.0 | 10.0 | 0.00 | 0.00 | 0.00 | 19 | 1013.3 |
| 20260507002005 | 81 | 302 | 4.0 | 8.0 | 0.00 | 0.00 | 0.00 | 19 | 1013.3 |
| 20260507001518 | 81 | 360 | 2.0 | 10.0 | 0.00 | 0.00 | 0.00 | 19 | 1013.3 |
| 20260507001006 | 80 | 360 | 4.0 | 11.0 | 0.00 | 0.00 | 0.00 | 19 | 1013.4 |
| 20260507000506 | 80 | 360 | 5.0 | 11.0 | 0.00 | 0.00 | 0.00 | 19 | 1013.4 |
| 20260507000012 | 81 | 5 | 3.0 | 10.0 | 0.00 | 0.00 | 0.00 | 19 | 1013.4 |
| 20260506235507 | 80 | 360 | 4.0 | 10.0 | 0.00 | 0.00 | 0.00 | 19 | 1013.4 |
| 20260506235004 | 80 | 360 | 3.0 | 12.0 | 0.00 | 0.00 | 0.00 | 19 | 1013.4 |
| 20260506234510 | 80 | 360 | 3.0 | 12.0 | 0.00 | 0.00 | 0.00 | 19 | 1013.4 |
| 20260506234012 | 80 | 311 | 2.0 | 11.0 | 0.00 | 0.00 | 0.00 | 20 | 1013.3 |
| 20260506233506 | 81 | 281 | 3.0 | 11.0 | 0.00 | 0.00 | 0.00 | 19 | 1013.3 |
| 20260506233026 | 81 | 279 | 2.0 | 10.0 | 0.00 | 0.00 | 0.00 | 20 | 1013.3 |
| 20260506232508 | 82 | 288 | 2.0 | 9.0 | 0.00 | 0.00 | 0.00 | 19 | 1013.4 |
| 20260506232006 | 81 | 319 | 2.0 | 9.0 | 0.00 | 0.00 | 0.00 | 20 | 1013.5 |
| 20260506231529 | 80 | 255 | 2.0 | 12.0 | 0.00 | 0.00 | 0.00 | 19 | 1013.5 |
| 20260506231007 | 81 | 246 | 4.0 | 12.0 | 0.00 | 0.00 | 0.00 | 19 | 1013.7 |
| 20260506230505 | 81 | 309 | 1.0 | 7.0 | 0.00 | 0.00 | 0.00 | 18 | 1013.7 |
| 20260506230025 | 81 | 274 | 1.0 | 9.0 | 0.00 | 0.00 | 0.00 | 19 | 1013.8 |
| 20260506225507 | 80 | 8 | 3.0 | 9.0 | 0.00 | 0.00 | 0.00 | 18 | 1013.8 |
| 20260506225005 | 80 | 8 | 5.0 | 9.0 | 0.00 | 0.00 | 0.00 | 19 | 1013.9 |
| 20260506224524 | 81 | 15 | 3.0 | 12.0 | 0.00 | 0.00 | 0.00 | 19 | 1013.7 |
| 20260506224007 | 81 | 13 | 4.0 | 12.0 | 0.00 | 0.00 | 0.00 | 20 | 1013.8 |
| 20260506223505 | 80 | 11 | 3.0 | 11.0 | 0.00 | 0.00 | 0.00 | 20 | 1013.8 |
| 20260506223006 | 80 | 360 | 4.0 | 11.0 | 0.00 | 0.00 | 0.00 | 20 | 1013.8 |
| 20260506222513 | 81 | 360 | 2.0 | 9.0 | 0.00 | 0.00 | 0.00 | 20 | 1013.8 |
| 20260506222008 | 81 | 46 | 1.0 | 8.0 | 0.00 | 0.00 | 0.00 | 19 | 1013.8 |
| 20260506221508 | 80 | 79 | 4.0 | 10.0 | 0.00 | 0.00 | 0.00 | 20 | 1013.9 |
| 20260506221008 | 79 | 70 | 3.0 | 10.0 | 0.00 | 0.00 | 0.00 | 21 | 1013.9 |
| 20260506220504 | 79 | 75 | 6.0 | 10.0 | 0.00 | 0.00 | 0.00 | 22 | 1013.9 |
| 20260506220010 | 80 | 113 | 5.0 | 8.0 | 0.00 | 0.00 | 0.00 | 21 | 1014.0 |
| 20260506215508 | 80 | 19 | 2.0 | 10.0 | 0.00 | 0.00 | 0.00 | 22 | 1014.1 |
| 20260506215009 | 78 | 9 | 4.0 | 10.0 | 0.00 | 0.00 | 0.00 | 22 | 1014.2 |
| 20260506214508 | 79 | 18 | 5.0 | 10.0 | 0.00 | 0.00 | 0.00 | 22 | 1014.3 |
| 20260506214012 | 79 | 8 | 4.0 | 9.0 | 0.00 | 0.00 | 0.00 | 22 | 1014.3 |
| 20260506213505 | 80 | 11 | 4.0 | 9.0 | 0.00 | 0.00 | 0.00 | 22 | 1014.4 |
| 20260506213010 | 81 | 10 | 3.0 | 10.0 | 0.00 | 0.00 | 0.00 | 22 | 1014.4 |
| 20260506212508 | 80 | 9 | 4.0 | 10.0 | 0.00 | 0.00 | 0.00 | 23 | 1014.5 |
| 20260506212008 | 79 | 7 | 1.0 | 12.0 | 0.00 | 0.00 | 0.00 | 23 | 1014.6 |
| 20260506211508 | 79 | 8 | 5.0 | 12.0 | 0.00 | 0.00 | 0.00 | 23 | 1014.7 |
| 20260506211009 | 80 | 360 | 1.0 | 6.0 | 0.00 | 0.00 | 0.00 | 23 | 1014.7 |
| 20260506210505 | 78 | 360 | 1.0 | 10.0 | 0.00 | 0.00 | 0.00 | 24 | 1014.8 |
| 20260506210010 | 78 | 360 | 2.0 | 10.0 | 0.00 | 0.00 | 0.00 | 25 | 1014.9 |
| 20260506205511 | 76 | 360 | 1.0 | 11.0 | 0.00 | 0.00 | 0.00 | 24 | 1015.0 |
| 20260506205010 | 76 | 360 | 6.0 | 11.0 | 0.00 | 0.00 | 0.00 | 25 | 1015.0 |
| 20260506204508 | 76 | 360 | 2.0 | 7.0 | 0.00 | 0.00 | 0.00 | 25 | 1015.0 |
| 20260506204008 | 78 | 360 | 3.0 | 11.0 | 0.00 | 0.00 | 0.00 | 23 | 1015.1 |
| 20260506203503 | 78 | 360 | 4.0 | 11.0 | 0.00 | 0.00 | 0.00 | 24 | 1015.1 |
| 20260506203009 | 78 | 360 | 4.0 | 9.0 | 0.00 | 0.00 | 0.00 | 24 | 1015.1 |
| 20260506202507 | 78 | 360 | 5.0 | 9.0 | 0.00 | 0.00 | 0.00 | 24 | 1015.1 |
| 20260506202011 | 78 | 360 | 4.0 | 9.0 | 0.00 | 0.00 | 0.00 | 24 | 1015.2 |
| 20260506201509 | 77 | 360 | 2.0 | 7.0 | 0.00 | 0.00 | 0.00 | 27 | 1015.2 |
| 20260506201007 | 77 | 360 | 3.0 | 7.0 | 0.00 | 0.00 | 0.00 | 27 | 1015.3 |
| 20260506200510 | 77 | 360 | 1.0 | 6.0 | 0.00 | 0.00 | 0.00 | 26 | 1015.4 |
| 20260506200008 | 76 | 360 | 3.0 | 7.0 | 0.00 | 0.00 | 0.00 | 27 | 1015.4 |
| 20260506195508 | 76 | 360 | 0.0 | 7.0 | 0.00 | 0.00 | 0.00 | 28 | 1015.5 |
| 20260506195004 | 76 | 360 | 2.0 | 10.0 | 0.00 | 0.00 | 0.00 | 28 | 1015.5 |
| 20260506194508 | 76 | 360 | 3.0 | 10.0 | 0.00 | 0.00 | 0.00 | 28 | 1015.6 |
| 20260506194007 | 76 | 360 | 3.0 | 8.0 | 0.00 | 0.00 | 0.00 | 28 | 1015.6 |
| 20260506193505 | 76 | 360 | 1.0 | 9.0 | 0.00 | 0.00 | 0.00 | 28 | 1015.8 |
| 20260506193008 | 75 | 360 | 2.0 | 9.0 | 0.00 | 0.00 | 0.00 | 28 | 1015.8 |
| 20260506192509 | 77 | 360 | 4.0 | 8.0 | 0.00 | 0.00 | 0.00 | 27 | 1015.9 |
| 20260506192006 | 76 | 360 | 2.0 | 5.0 | 0.00 | 0.00 | 0.00 | 30 | 1015.9 |
| 20260506191506 | 75 | 360 | 2.0 | 7.0 | 0.00 | 0.00 | 0.00 | 29 | 1016.0 |
| 20260506191010 | 74 | 360 | 3.0 | 8.0 | 0.00 | 0.00 | 0.00 | 29 | 1016.0 |
| 20260506190504 | 75 | 360 | 3.0 | 8.0 | 0.00 | 0.00 | 0.00 | 30 | 1016.0 |
| 20260506190009 | 75 | 360 | 2.0 | 12.0 | 0.00 | 0.00 | 0.00 | 30 | 1016.0 |
| 20260506185506 | 73 | 360 | 1.0 | 12.0 | 0.00 | 0.00 | 0.00 | 30 | 1016.1 |
| 20260506185003 | 74 | 360 | 4.0 | 12.0 | 0.00 | 0.00 | 0.00 | 31 | 1016.1 |
| 20260506184508 | 73 | 360 | 1.0 | 10.0 | 0.00 | 0.00 | 0.00 | 31 | 1016.1 |
| 20260506184007 | 73 | 360 | 1.0 | 10.0 | 0.00 | 0.00 | 0.00 | 31 | 1016.3 |
| 20260506183504 | 74 | 360 | 2.0 | 10.0 | 0.00 | 0.00 | 0.00 | 30 | 1016.3 |
| 20260506183011 | 73 | 360 | 2.0 | 8.0 | 0.00 | 0.00 | 0.00 | 31 | 1016.4 |
| 20260506182508 | 73 | 360 | 4.0 | 8.0 | 0.00 | 0.00 | 0.00 | 31 | 1016.5 |
| 20260506182006 | 71 | 360 | 3.0 | 6.0 | 0.00 | 0.00 | 0.00 | 32 | 1016.5 |
| 20260506181507 | 72 | 360 | 3.0 | 8.0 | 0.00 | 0.00 | 0.00 | 32 | 1016.5 |
| 20260506181005 | 72 | 360 | 2.0 | 8.0 | 0.00 | 0.00 | 0.00 | 32 | 1016.6 |
| 20260506180506 | 72 | 360 | 1.0 | 8.0 | 0.00 | 0.00 | 0.00 | 33 | 1016.7 |
| 20260506180031 | 72 | 360 | 1.0 | 8.0 | 0.00 | 0.00 | 0.00 | 33 | 1016.7 |
| 20260506175508 | 73 | 360 | 0.0 | 7.0 | 0.00 | 0.00 | 0.00 | 33 | 1016.7 |
| 20260506175004 | 72 | 360 | 2.0 | 7.0 | 0.00 | 0.00 | 0.00 | 32 | 1016.7 |
| 20260506174525 | 72 | 360 | 1.0 | 6.0 | 0.00 | 0.00 | 0.00 | 33 | 1016.7 |
| 20260506174011 | 71 | 360 | 1.0 | 5.0 | 0.00 | 0.00 | 0.00 | 33 | 1016.8 |
| 20260506173507 | 71 | 360 | 2.0 | 4.0 | 0.00 | 0.00 | 0.00 | 34 | 1016.8 |
| 20260506173028 | 70 | 360 | 1.0 | 6.0 | 0.00 | 0.00 | 0.00 | 34 | 1016.8 |
| 20260506172509 | 70 | 360 | 0.0 | 6.0 | 0.00 | 0.00 | 0.00 | 34 | 1016.8 |
| 20260506172009 | 70 | 360 | 3.0 | 6.0 | 0.00 | 0.00 | 0.00 | 36 | 1016.8 |
| 20260506171525 | 70 | 360 | 1.0 | 5.0 | 0.00 | 0.00 | 0.00 | 36 | 1016.7 |
| 20260506171007 | 70 | 360 | 2.0 | 6.0 | 0.00 | 0.00 | 0.00 | 36 | 1016.8 |
| 20260506170505 | 69 | 5 | 1.0 | 6.0 | 0.00 | 0.00 | 0.00 | 37 | 1016.7 |
| 20260506170035 | 69 | 10 | 1.0 | 6.0 | 0.00 | 0.00 | 0.00 | 37 | 1016.8 |
| 20260506165506 | 69 | 10 | 2.0 | 6.0 | 0.00 | 0.00 | 0.00 | 39 | 1016.8 |
| 20260506165005 | 68 | 8 | 0.0 | 5.0 | 0.00 | 0.00 | 0.00 | 40 | 1016.7 |
| 20260506164532 | 68 | 7 | 0.0 | 5.0 | 0.00 | 0.00 | 0.00 | 40 | 1016.7 |
| 20260506164009 | 68 | 7 | 1.0 | 4.0 | 0.00 | 0.00 | 0.00 | 42 | 1016.7 |
| 20260506163507 | 68 | 21 | 1.0 | 4.0 | 0.00 | 0.00 | 0.00 | 40 | 1016.7 |
| 20260506163028 | 68 | 360 | 0.0 | 4.0 | 0.00 | 0.00 | 0.00 | 42 | 1016.6 |
| 20260506162509 | 67 | 8 | 1.0 | 4.0 | 0.00 | 0.00 | 0.00 | 43 | 1016.6 |
| 20260506162011 | 67 | 5 | 1.0 | 4.0 | 0.00 | 0.00 | 0.00 | 44 | 1016.5 |
| 20260506161528 | 67 | 5 | 0.0 | 5.0 | 0.00 | 0.00 | 0.00 | 44 | 1016.5 |
| 20260506161009 | 67 | 5 | 0.0 | 5.0 | 0.00 | 0.00 | 0.00 | 45 | 1016.5 |
| 20260506160507 | 67 | 9 | 0.0 | 1.0 | 0.00 | 0.00 | 0.00 | 45 | 1016.6 |
| 20260506160026 | 67 | 9 | 0.0 | 1.0 | 0.00 | 0.00 | 0.00 | 46 | 1016.6 |
| 20260506155508 | 66 | 11 | 0.0 | 4.0 | 0.00 | 0.00 | 0.00 | 46 | 1016.5 |
| 20260506155007 | 66 | 360 | 1.0 | 4.0 | 0.00 | 0.00 | 0.00 | 47 | 1016.5 |
| 20260506154529 | 65 | 10 | 0.0 | 3.0 | 0.00 | 0.00 | 0.00 | 47 | 1016.5 |
| 20260506154008 | 65 | 360 | 0.0 | 3.0 | 0.00 | 0.00 | 0.00 | 49 | 1016.5 |
| 20260506153505 | 65 | 10 | 0.0 | 3.0 | 0.00 | 0.00 | 0.00 | 48 | 1016.5 |
| 20260506153026 | 65 | 10 | 0.0 | 3.0 | 0.00 | 0.00 | 0.00 | 49 | 1016.5 |
| 20260506152506 | 64 | 10 | 1.0 | 3.0 | 0.00 | 0.00 | 0.00 | 50 | 1016.5 |
| 20260506152008 | 64 | 360 | 0.0 | 3.0 | 0.00 | 0.00 | 0.00 | 51 | 1016.6 |
| 20260506151533 | 63 | 7 | 0.0 | 3.0 | 0.00 | 0.00 | 0.00 | 52 | 1016.6 |
| 20260506151009 | 63 | 11 | 0.0 | 3.0 | 0.00 | 0.00 | 0.00 | 52 | 1016.5 |
| 20260506150506 | 63 | 8 | 1.0 | 4.0 | 0.00 | 0.00 | 0.00 | 53 | 1016.5 |
| 20260506150025 | 62 | 9 | 1.0 | 5.0 | 0.00 | 0.00 | 0.00 | 54 | 1016.5 |
| 20260506145510 | 62 | 360 | 2.0 | 5.0 | 0.00 | 0.00 | 0.00 | 54 | 1016.5 |
| 20260506145004 | 62 | 360 | 0.0 | 4.0 | 0.00 | 0.00 | 0.00 | 56 | 1016.4 |
| 20260506144525 | 62 | 360 | 1.0 | 4.0 | 0.00 | 0.00 | 0.00 | 56 | 1016.3 |
| 20260506144013 | 61 | 360 | 0.0 | 4.0 | 0.00 | 0.00 | 0.00 | 56 | 1016.4 |
| 20260506143506 | 61 | 360 | 0.0 | 3.0 | 0.00 | 0.00 | 0.00 | 57 | 1016.4 |
| 20260506143024 | 61 | 360 | 0.0 | 4.0 | 0.00 | 0.00 | 0.00 | 57 | 1016.5 |
| 20260506142513 | 60 | 360 | 1.0 | 4.0 | 0.00 | 0.00 | 0.00 | 57 | 1016.5 |
| 20260506142006 | 60 | 360 | 1.0 | 4.0 | 0.00 | 0.00 | 0.00 | 58 | 1016.5 |
| 20260506141528 | 60 | 360 | 0.0 | 3.0 | 0.00 | 0.00 | 0.00 | 59 | 1016.6 |
| 20260506141006 | 59 | 360 | 0.0 | 2.0 | 0.00 | 0.00 | 0.00 | 60 | 1016.6 |
| 20260506140506 | 59 | 360 | 0.0 | 2.0 | 0.00 | 0.00 | 0.00 | 62 | 1016.5 |
| 20260506140029 | 59 | 360 | 0.0 | 2.0 | 0.00 | 0.00 | 0.00 | 63 | 1016.5 |
| 20260506135506 | 58 | 360 | 0.0 | 2.0 | 0.00 | 0.00 | 0.00 | 63 | 1016.5 |
| 20260506135003 | 58 | 360 | 0.0 | 2.0 | 0.00 | 0.00 | 0.00 | 64 | 1016.5 |
| 20260506134525 | 57 | 360 | 0.0 | 4.0 | 0.00 | 0.00 | 0.00 | 66 | 1016.5 |
| 20260506134011 | 57 | 360 | 0.0 | 4.0 | 0.00 | 0.00 | 0.00 | 67 | 1016.5 |
| 20260506133503 | 56 | 360 | 0.0 | 2.0 | 0.00 | 0.00 | 0.00 | 69 | 1016.4 |
| 20260506133006 | 56 | 360 | 0.0 | 2.0 | 0.00 | 0.00 | 0.00 | 70 | 1016.3 |
| 20260506132503 | 55 | 360 | 0.0 | 1.0 | 0.00 | 0.00 | 0.00 | 72 | 1016.2 |
| 20260506132007 | 54 | 360 | 0.0 | 1.0 | 0.00 | 0.00 | 0.00 | 73 | 1016.2 |
| 20260506131515 | 54 | 40 | 0.0 | 0.0 | 0.00 | 0.00 | 0.00 | 74 | 1016.1 |
| 20260506131003 | 53 | 40 | 0.0 | 0.0 | 0.00 | 0.00 | 0.00 | 74 | 1016.1 |
| 20260506130508 | 53 | 39 | 0.0 | 1.0 | 0.00 | 0.00 | 0.00 | 74 | 1016.1 |
| 20260506130006 | 53 | 39 | 0.0 | 1.0 | 0.00 | 0.00 | 0.00 | 74 | 1016.1 |
| 20260506125503 | 53 | 39 | 0.0 | 0.0 | 0.00 | 0.00 | 0.00 | 73 | 1016.0 |
| 20260506125006 | 53 | 39 | 0.0 | 0.0 | 0.00 | 0.00 | 0.00 | 72 | 1016.1 |
| 20260506124506 | 53 | 39 | 0.0 | 0.0 | 0.00 | 0.00 | 0.00 | 71 | 1016.1 |
| 20260506124006 | 53 | 39 | 0.0 | 0.0 | 0.00 | 0.00 | 0.00 | 70 | 1015.9 |
| 20260506123504 | 54 | 39 | 0.0 | 0.0 | 0.00 | 0.00 | 0.00 | 69 | 1015.9 |
| 20260506123016 | 54 | 39 | 0.0 | 0.0 | 0.00 | 0.00 | 0.00 | 68 | 1015.8 |
| 20260506122503 | 54 | 39 | 0.0 | 0.0 | 0.00 | 0.00 | 0.00 | 67 | 1015.6 |
| 20260506122004 | 54 | 39 | 0.0 | 0.0 | 0.00 | 0.00 | 0.00 | 66 | 1015.6 |
| 20260506121508 | 54 | 39 | 0.0 | 0.0 | 0.00 | 0.00 | 0.00 | 66 | 1015.6 |
| 20260506121012 | 55 | 39 | 0.0 | 0.0 | 0.00 | 0.00 | 0.00 | 65 | 1015.6 |
| 20260506120507 | 55 | 39 | 0.0 | 0.0 | 0.00 | 0.00 | 0.00 | 65 | 1015.5 |
| 20260506120018 | 55 | 39 | 0.0 | 1.0 | 0.00 | 0.00 | 0.00 | 64 | 1015.5 |
| 20260506115508 | 55 | 39 | 0.0 | 1.0 | 0.00 | 0.00 | 0.00 | 63 | 1015.5 |
| 20260506115006 | 55 | 39 | 0.0 | 1.0 | 0.00 | 0.00 | 0.00 | 63 | 1015.4 |
| 20260506114506 | 55 | 39 | 0.0 | 1.0 | 0.00 | 0.01 | 0.00 | 63 | 1015.4 |
| 20260506114009 | 56 | 39 | 0.0 | 1.0 | 0.00 | 0.02 | 0.00 | 62 | 1015.4 |
| 20260506113508 | 56 | 37 | 0.0 | 1.0 | 0.00 | 0.02 | 0.00 | 62 | 1015.4 |
| 20260506113010 | 56 | 37 | 0.0 | 1.0 | 0.00 | 0.02 | 0.00 | 61 | 1015.3 |
| 20260506112509 | 56 | 37 | 0.0 | 3.0 | 0.00 | 0.02 | 0.00 | 60 | 1015.3 |
| 20260506112006 | 56 | 37 | 0.0 | 3.0 | 0.00 | 0.02 | 0.00 | 60 | 1015.2 |
| 20260506111509 | 56 | 38 | 0.0 | 4.0 | 0.00 | 0.02 | 0.00 | 61 | 1015.2 |
| 20260506111006 | 55 | 39 | 0.0 | 4.0 | 0.00 | 0.02 | 0.00 | 61 | 1015.2 |
| 20260506110509 | 55 | 41 | 0.0 | 4.0 | 0.00 | 0.02 | 0.00 | 62 | 1015.1 |
| 20260506110008 | 55 | 25 | 1.0 | 4.0 | 0.00 | 0.02 | 0.00 | 63 | 1015.0 |
| 20260506105507 | 55 | 360 | 0.0 | 3.0 | 0.00 | 0.02 | 0.00 | 63 | 1015.0 |
| 20260506105007 | 55 | 349 | 0.0 | 1.0 | 0.00 | 0.02 | 0.00 | 62 | 1015.0 |
| 20260506104508 | 56 | 349 | 0.0 | 1.0 | 0.00 | 0.02 | 0.00 | 62 | 1015.0 |
| 20260506104008 | 56 | 349 | 0.0 | 1.0 | 0.00 | 0.03 | 0.00 | 60 | 1014.9 |
| 20260506103506 | 56 | 349 | 0.0 | 1.0 | 0.00 | 0.03 | 0.00 | 60 | 1014.9 |
| 20260506103008 | 56 | 349 | 0.0 | 2.0 | 0.00 | 0.03 | 0.00 | 60 | 1014.9 |
| 20260506102509 | 57 | 348 | 0.0 | 2.0 | 0.00 | 0.03 | 0.00 | 60 | 1014.9 |
| 20260506102006 | 57 | 348 | 0.0 | 3.0 | 0.00 | 0.03 | 0.00 | 60 | 1014.8 |
| 20260506101509 | 57 | 348 | 0.0 | 4.0 | 0.00 | 0.03 | 0.00 | 60 | 1014.7 |
| 20260506101010 | 57 | 330 | 1.0 | 4.0 | 0.00 | 0.04 | 0.00 | 59 | 1014.7 |
| 20260506100506 | 57 | 325 | 0.0 | 3.0 | 0.00 | 0.05 | 0.00 | 58 | 1014.7 |
| 20260506100010 | 58 | 324 | 0.0 | 3.0 | 0.00 | 0.05 | 0.00 | 57 | 1014.6 |
| 20260506095506 | 58 | 323 | 0.0 | 3.0 | 0.00 | 0.05 | 0.00 | 57 | 1014.6 |
| 20260506095006 | 58 | 311 | 1.0 | 3.0 | 0.00 | 0.05 | 0.00 | 55 | 1014.6 |
| 20260506094508 | 58 | 315 | 0.0 | 3.0 | 0.00 | 0.05 | 0.00 | 55 | 1014.6 |
| 20260506094005 | 59 | 320 | 0.0 | 4.0 | 0.00 | 0.05 | 0.00 | 54 | 1014.5 |
| 20260506093504 | 58 | 307 | 0.0 | 4.0 | 0.00 | 0.05 | 0.00 | 55 | 1014.5 |
| 20260506093009 | 58 | 326 | 1.0 | 3.0 | 0.00 | 0.05 | 0.00 | 54 | 1014.6 |
| 20260506092509 | 58 | 336 | 0.0 | 3.0 | 0.00 | 0.06 | 0.00 | 54 | 1014.5 |
| 20260506092007 | 57 | 317 | 1.0 | 3.0 | 0.00 | 0.07 | 0.00 | 54 | 1014.6 |
| 20260506091510 | 57 | 318 | 0.0 | 2.0 | 0.00 | 0.07 | 0.00 | 55 | 1014.6 |
| 20260506091007 | 56 | 313 | 0.0 | 1.0 | 0.00 | 0.07 | 0.00 | 55 | 1014.6 |
| 20260506090506 | 57 | 296 | 0.0 | 0.0 | 0.00 | 0.08 | 0.00 | 57 | 1014.6 |
| 20260506090008 | 57 | 308 | 0.0 | 0.0 | 0.00 | 0.08 | 0.00 | 56 | 1014.6 |
| 20260506085507 | 57 | 250 | 0.0 | 1.0 | 0.00 | 0.08 | 0.00 | 54 | 1014.6 |
| 20260506085006 | 58 | 247 | 0.0 | 1.0 | 0.00 | 0.08 | 0.00 | 54 | 1014.6 |
| 20260506084509 | 58 | 247 | 0.0 | 1.0 | 0.00 | 0.08 | 0.00 | 54 | 1014.7 |
| 20260506084006 | 58 | 360 | 0.0 | 1.0 | 0.00 | 0.08 | 0.00 | 54 | 1014.7 |
| 20260506083505 | 59 | 360 | 0.0 | 3.0 | 0.00 | 0.08 | 0.00 | 51 | 1014.6 |
| 20260506083009 | 59 | 360 | 0.0 | 3.0 | 0.00 | 0.08 | 0.00 | 51 | 1014.7 |
| 20260506082506 | 59 | 360 | 0.0 | 3.0 | 0.00 | 0.09 | 0.00 | 50 | 1014.6 |
| 20260506082007 | 59 | 360 | 0.0 | 4.0 | 0.00 | 0.09 | 0.00 | 50 | 1014.7 |
| 20260506081505 | 59 | 360 | 1.0 | 4.0 | 0.00 | 0.09 | 0.00 | 50 | 1014.7 |
| 20260506081010 | 59 | 360 | 0.0 | 3.0 | 0.00 | 0.10 | 0.00 | 51 | 1014.7 |
| 20260506080504 | 59 | 360 | 0.0 | 3.0 | 0.00 | 0.10 | 0.00 | 50 | 1014.7 |
| 20260506073506 | 60 | 360 | 0.0 | 3.0 | 0.00 | 0.13 | 0.00 | 49 | 1014.7 |
| 20260506073026 | 60 | 360 | 0.0 | 3.0 | 0.00 | 0.14 | 0.00 | 49 | 1014.7 |
| 20260506072510 | 60 | 360 | 0.0 | 3.0 | 0.00 | 0.14 | 0.00 | 49 | 1014.7 |
| 20260506072010 | 60 | 360 | 0.0 | 3.0 | 0.00 | 0.15 | 0.00 | 50 | 1014.7 |
| 20260506071526 | 61 | 360 | 0.0 | 2.0 | 0.00 | 0.15 | 0.00 | 50 | 1014.7 |
| 20260506071010 | 61 | 360 | 0.0 | 2.0 | 0.00 | 0.15 | 0.00 | 51 | 1014.7 |
| 20260506070504 | 61 | 360 | 0.0 | 2.0 | 0.00 | 0.15 | 0.00 | 53 | 1014.7 |
| 20260506062509 | 63 | 360 | 0.0 | 4.0 | 0.00 | 0.19 | 0.16 | 55 | 1014.5 |
| 20260506062006 | 63 | 360 | 0.0 | 4.0 | 0.00 | 0.20 | 0.16 | 54 | 1014.4 |
| 20260506061526 | 63 | 360 | 1.0 | 5.0 | 0.00 | 0.20 | 0.16 | 53 | 1014.4 |
| 20260506061011 | 63 | 360 | 1.0 | 5.0 | 0.00 | 0.21 | 0.16 | 53 | 1014.5 |
| 20260506060504 | 63 | 360 | 2.0 | 5.0 | 0.00 | 0.21 | 0.16 | 51 | 1014.5 |
| 20260506051007 | 65 | 360 | 1.0 | 7.0 | 0.00 | 0.25 | 0.16 | 42 | 1014.1 |
| 20260506050503 | 65 | 11 | 2.0 | 7.0 | 0.00 | 0.25 | 0.16 | 44 | 1014.1 |
| 20260506045005 | 66 | 360 | 1.0 | 10.0 | 0.00 | 0.26 | 0.16 | 48 | 1013.9 |
| 20260506044527 | 66 | 360 | 4.0 | 11.0 | 0.00 | 0.26 | 0.16 | 47 | 1013.8 |
| 20260506044007 | 66 | 360 | 5.0 | 11.0 | 0.00 | 0.27 | 0.16 | 46 | 1013.7 |
| 20260506043508 | 67 | 360 | 2.0 | 11.0 | 0.00 | 0.27 | 0.16 | 43 | 1013.7 |
| 20260506043008 | 66 | 360 | 6.0 | 11.0 | 0.00 | 0.27 | 0.16 | 42 | 1013.7 |
| 20260506042508 | 67 | 360 | 4.0 | 10.0 | 0.00 | 0.27 | 0.16 | 47 | 1013.7 |
| 20260506042007 | 67 | 11 | 3.0 | 10.0 | 0.00 | 0.27 | 0.16 | 47 | 1013.6 |
| 20260506041505 | 67 | 360 | 6.0 | 10.0 | 0.00 | 0.28 | 0.16 | 47 | 1013.6 |
| 20260506041009 | 67 | 360 | 5.0 | 11.0 | 0.00 | 0.28 | 0.16 | 47 | 1013.5 |
| 20260506040503 | 67 | 360 | 4.0 | 11.0 | 0.00 | 0.28 | 0.16 | 47 | 1013.4 |
| 20260506040006 | 66 | 360 | 3.0 | 8.0 | 0.00 | 0.29 | 0.16 | 46 | 1013.2 |
| 20260506035507 | 66 | 360 | 4.0 | 7.0 | 0.00 | 0.29 | 0.16 | 46 | 1013.1 |
| 20260506035002 | 67 | 360 | 1.0 | 4.0 | 0.00 | 0.29 | 0.16 | 44 | 1012.9 |
| 20260506034508 | 67 | 360 | 0.0 | 3.0 | 0.00 | 0.29 | 0.16 | 43 | 1012.8 |
| 20260506034011 | 67 | 360 | 0.0 | 4.0 | 0.00 | 0.29 | 0.16 | 41 | 1012.7 |
| 20260506033504 | 67 | 360 | 0.0 | 4.0 | 0.00 | 0.29 | 0.16 | 41 | 1012.6 |
| 20260506033006 | 67 | 360 | 0.0 | 4.0 | 0.00 | 0.29 | 0.16 | 40 | 1012.5 |
| 20260506032508 | 67 | 360 | 0.0 | 4.0 | 0.00 | 0.29 | 0.16 | 39 | 1012.4 |
| 20260506032004 | 68 | 360 | 1.0 | 4.0 | 0.00 | 0.29 | 0.16 | 39 | 1012.3 |
| 20260506031506 | 68 | 360 | 1.0 | 5.0 | 0.00 | 0.29 | 0.16 | 38 | 1012.2 |
| 20260506031007 | 68 | 360 | 2.0 | 5.0 | 0.00 | 0.29 | 0.16 | 38 | 1012.2 |
| 20260506030508 | 68 | 360 | 2.0 | 5.0 | 0.00 | 0.29 | 0.16 | 37 | 1012.1 |
| 20260506030004 | 68 | 360 | 3.0 | 5.0 | 0.00 | 0.29 | 0.16 | 37 | 1012.0 |
| 20260506025507 | 68 | 360 | 1.0 | 7.0 | 0.00 | 0.29 | 0.16 | 37 | 1012.0 |
| 20260506025007 | 69 | 360 | 2.0 | 9.0 | 0.00 | 0.29 | 0.16 | 36 | 1011.9 |
| 20260506024506 | 69 | 360 | 3.0 | 9.0 | 0.00 | 0.29 | 0.16 | 36 | 1012.0 |
| 20260506024010 | 69 | 360 | 3.0 | 9.0 | 0.00 | 0.29 | 0.16 | 35 | 1011.9 |
| 20260506023504 | 69 | 360 | 5.0 | 9.0 | 0.00 | 0.29 | 0.16 | 35 | 1011.8 |
| 20260506023030 | 69 | 360 | 2.0 | 8.0 | 0.00 | 0.29 | 0.16 | 35 | 1011.7 |
| 20260506022508 | 69 | 11 | 2.0 | 11.0 | 0.00 | 0.29 | 0.16 | 34 | 1011.6 |
| 20260506022003 | 69 | 8 | 5.0 | 11.0 | 0.00 | 0.29 | 0.16 | 33 | 1011.5 |
| 20260506021532 | 70 | 360 | 0.0 | 11.0 | 0.00 | 0.29 | 0.16 | 33 | 1011.4 |
| 20260506021008 | 70 | 360 | 5.0 | 14.0 | 0.00 | 0.29 | 0.16 | 32 | 1011.3 |
| 20260506020503 | 70 | 360 | 4.0 | 14.0 | 0.00 | 0.29 | 0.16 | 31 | 1011.2 |
| 20260506020031 | 70 | 9 | 4.0 | 11.0 | 0.00 | 0.29 | 0.16 | 31 | 1011.2 |
| 20260506015507 | 71 | 10 | 6.0 | 12.0 | 0.00 | 0.29 | 0.16 | 30 | 1011.0 |
| 20260506015012 | 71 | 360 | 6.0 | 12.0 | 0.00 | 0.29 | 0.16 | 30 | 1011.0 |
| 20260506014525 | 71 | 11 | 6.0 | 12.0 | 0.00 | 0.29 | 0.16 | 30 | 1011.0 |
| 20260506014007 | 71 | 8 | 7.0 | 13.0 | 0.00 | 0.29 | 0.16 | 29 | 1011.0 |
| 20260506013504 | 72 | 7 | 5.0 | 13.0 | 0.00 | 0.29 | 0.16 | 31 | 1010.9 |
| 20260506013026 | 71 | 8 | 7.0 | 14.0 | 0.00 | 0.29 | 0.16 | 31 | 1010.8 |
| 20260506012507 | 72 | 8 | 5.0 | 14.0 | 0.00 | 0.29 | 0.16 | 32 | 1010.9 |
| 20260506012004 | 72 | 9 | 5.0 | 13.0 | 0.00 | 0.29 | 0.16 | 32 | 1010.9 |
| 20260506011523 | 72 | 8 | 7.0 | 13.0 | 0.00 | 0.29 | 0.16 | 32 | 1010.9 |
| 20260506011010 | 73 | 11 | 6.0 | 15.0 | 0.00 | 0.29 | 0.16 | 31 | 1010.9 |
| 20260506010508 | 73 | 8 | 6.0 | 17.0 | 0.00 | 0.29 | 0.16 | 31 | 1010.9 |
| 20260506010043 | 74 | 8 | 9.0 | 17.0 | 0.00 | 0.29 | 0.16 | 31 | 1010.8 |
| 20260506005508 | 74 | 8 | 5.0 | 13.0 | 0.00 | 0.29 | 0.16 | 31 | 1010.7 |
| 20260506005004 | 74 | 7 | 6.0 | 14.0 | 0.00 | 0.29 | 0.16 | 30 | 1010.7 |
| 20260506004527 | 74 | 9 | 7.0 | 14.0 | 0.00 | 0.29 | 0.16 | 30 | 1010.6 |